• In Hungary
  • List of Countries
  • For 7 days
  • Water Temperature
  • Satellite Maps
  • Weather Map
  • News
  • Weather Widgets
  • user-avatar
    Login

    Hourly Weather Ust-Vym

    Today, 20 August, Monday

    Time Temperature Precipitation Wind Pressure Humidity
    00:00 +14°C° 0 mm 2 mps 751 mmHg 82%
    01:00 +14°C° 0 mm 2 mps 750 mmHg 83%
    02:00 +13°C° 0 mm 3 mps 750 mmHg 84%
    03:00 +12°C° 0 mm 3 mps 750 mmHg 85%
    04:00 +13°C° 0 mm 3 mps 749 mmHg 83%
    05:00 +13°C° 0 mm 3 mps 749 mmHg 80%
    06:00 +14°C° 0 mm 3 mps 748 mmHg 78%
    07:00 +16°C° 0.1 mm 3 mps 748 mmHg 75%
    08:00 +17°C° 0.1 mm 3 mps 748 mmHg 73%
    09:00 +18°C° 0.1 mm 4 mps 748 mmHg 70%
    10:00 +17°C° 1.1 mm 3 mps 748 mmHg 78%
    11:00 +16°C° 1.1 mm 3 mps 747 mmHg 85%
    12:00 +16°C° 1.1 mm 3 mps 747 mmHg 93%
    13:00 +16°C° 0.4 mm 3 mps 747 mmHg 93%
    14:00 +16°C° 0.4 mm 2 mps 747 mmHg 92%
    15:00 +16°C° 0.4 mm 2 mps 747 mmHg 92%
    16:00 +17°C° 0.1 mm 2 mps 747 mmHg 92%
    17:00 +17°C° 0.1 mm 2 mps 747 mmHg 91%
    18:00 +18°C° 0.1 mm 1 mps 747 mmHg 91%
    19:00 +16°C° 0 mm 1 mps 747 mmHg 93%
    20:00 +15°C° 0 mm 1 mps 747 mmHg 95%
    21:00 +14°C° 0 mm 1 mps 747 mmHg 98%
    22:00 +14°C° 0 mm 1 mps 747 mmHg 98%
    23:00 +13°C° 0 mm 1 mps 747 mmHg 98%

    Tomorrow, 21 August, Tuesday

    Time Temperature Precipitation Wind Pressure Humidity
    00:00 +13°C° 0 mm 1 mps 747 mmHg 98%
    01:00 +11°C° 0 mm 0 mps 747 mmHg 97%
    02:00 +11°C° 0 mm 0 mps 747 mmHg 97%
    03:00 +10°C° 0 mm 0 mps 747 mmHg 97%
    04:00 +11°C° 0 mm 0 mps 747 mmHg 96%
    05:00 +12°C° 0 mm 0 mps 747 mmHg 96%
    06:00 +14°C° 0 mm 1 mps 747 mmHg 95%
    07:00 +15°C° 0 mm 1 mps 747 mmHg 89%
    08:00 +18°C° 0 mm 1 mps 747 mmHg 83%
    09:00 +20°C° 0 mm 1 mps 746 mmHg 76%
    10:00 +20°C° 0.1 mm 2 mps 746 mmHg 72%
    11:00 +20°C° 0.1 mm 2 mps 746 mmHg 67%
    12:00 +21°C° 0.1 mm 2 mps 745 mmHg 62%
    13:00 +21°C° 0.1 mm 3 mps 745 mmHg 63%
    14:00 +21°C° 0.1 mm 3 mps 744 mmHg 64%
    15:00 +21°C° 0.1 mm 3 mps 743 mmHg 65%
    16:00 +21°C° 0 mm 3 mps 743 mmHg 66%
    17:00 +21°C° 0 mm 3 mps 742 mmHg 68%
    18:00 +20°C° 0 mm 3 mps 742 mmHg 69%
    19:00 +20°C° 0 mm 4 mps 741 mmHg 72%
    20:00 +19°C° 0 mm 4 mps 741 mmHg 75%
    21:00 +18°C° 0 mm 4 mps 740 mmHg 79%
    22:00 +18°C° 0.2 mm 4 mps 739 mmHg 82%
    23:00 +16°C° 0.2 mm 5 mps 739 mmHg 85%

    Day after tomorrow, 22 August, Wednesday

    Time Temperature Precipitation Wind Pressure Humidity
    00:00 +16°C° 0.2 mm 5 mps 738 mmHg 88%
    01:00 +16°C° 1.2 mm 5 mps 737 mmHg 90%
    02:00 +16°C° 1.2 mm 5 mps 737 mmHg 93%
    03:00 +16°C° 1.2 mm 5 mps 736 mmHg 95%
    04:00 +14°C° 0.8 mm 5 mps 737 mmHg 94%
    05:00 +13°C° 0.8 mm 4 mps 737 mmHg 93%
    06:00 +12°C° 0.8 mm 4 mps 737 mmHg 92%
    07:00 +12°C° 0.1 mm 4 mps 737 mmHg 89%
    08:00 +12°C° 0.1 mm 4 mps 738 mmHg 87%
    09:00 +12°C° 0.1 mm 4 mps 738 mmHg 84%
    10:00 +13°C° 0.1 mm 5 mps 738 mmHg 76%
    11:00 +14°C° 0.1 mm 5 mps 739 mmHg 69%
    12:00 +15°C° 0.1 mm 5 mps 739 mmHg 61%
    13:00 +15°C° 0.1 mm 5 mps 739 mmHg 63%
    14:00 +15°C° 0.1 mm 5 mps 739 mmHg 64%
    15:00 +14°C° 0.1 mm 5 mps 739 mmHg 66%
    16:00 +14°C° 0.1 mm 5 mps 739 mmHg 69%
    17:00 +13°C° 0.1 mm 5 mps 739 mmHg 71%
    18:00 +12°C° 0.1 mm 4 mps 740 mmHg 73%
    19:00 +11°C° 0.1 mm 4 mps 740 mmHg 77%
    20:00 +10°C° 0.1 mm 4 mps 740 mmHg 81%
    21:00 +8°C° 0.1 mm 4 mps 740 mmHg 85%
    22:00 +8°C° 0.1 mm 4 mps 740 mmHg 87%
    23:00 +8°C° 0.1 mm 4 mps 740 mmHg 88%

    23 August, Thursday

    Time Temperature Precipitation Wind Pressure Humidity
    00:00 +8°C° 0.1 mm 4 mps 740 mmHg 89%
    01:00 +8°C° 0.2 mm 4 mps 740 mmHg 90%
    02:00 +8°C° 0.2 mm 4 mps 741 mmHg 92%
    03:00 +7°C° 0.2 mm 4 mps 741 mmHg 93%
    04:00 +8°C° 0.1 mm 3 mps 741 mmHg 93%
    05:00 +8°C° 0.1 mm 3 mps 741 mmHg 93%
    06:00 +8°C° 0.1 mm 3 mps 742 mmHg 93%
    07:00 +8°C° 0.2 mm 3 mps 742 mmHg 93%
    08:00 +9°C° 0.2 mm 3 mps 743 mmHg 93%
    09:00 +9°C° 0.2 mm 3 mps 743 mmHg 94%
    10:00 +9°C° 0.3 mm 3 mps 744 mmHg 93%
    11:00 +9°C° 0.3 mm 3 mps 744 mmHg 93%
    12:00 +10°C° 0.3 mm 4 mps 745 mmHg 93%
    13:00 +10°C° 0.1 mm 4 mps 745 mmHg 92%
    14:00 +10°C° 0.1 mm 4 mps 746 mmHg 91%
    15:00 +10°C° 0.1 mm 4 mps 746 mmHg 90%
    16:00 +10°C° 0.1 mm 3 mps 747 mmHg 89%
    17:00 +10°C° 0.1 mm 3 mps 747 mmHg 89%
    18:00 +10°C° 0.1 mm 2 mps 748 mmHg 88%
    19:00 +10°C° 0 mm 2 mps 748 mmHg 90%
    20:00 +9°C° 0 mm 2 mps 748 mmHg 91%
    21:00 +9°C° 0 mm 2 mps 749 mmHg 92%
    22:00 +8°C° 0 mm 2 mps 749 mmHg 94%
    23:00 +9°C° 0 mm 1 mps 749 mmHg 95%

    24 August, Friday

    Time Temperature Precipitation Wind Pressure Humidity
    00:00 +8°C° 0 mm 1 mps 749 mmHg 97%
    01:00 +8°C° 0 mm 1 mps 750 mmHg 97%
    02:00 +7°C° 0 mm 1 mps 750 mmHg 97%
    03:00 +7°C° 0 mm 1 mps 750 mmHg 97%
    04:00 +7°C° 0 mm 1 mps 751 mmHg 95%
    05:00 +8°C° 0 mm 1 mps 751 mmHg 93%
    06:00 +9°C° 0 mm 1 mps 751 mmHg 91%
    07:00 +11°C° 0 mm 1 mps 751 mmHg 82%
    08:00 +13°C° 0 mm 2 mps 752 mmHg 73%
    09:00 +15°C° 0 mm 2 mps 752 mmHg 63%
    10:00 +16°C° 0 mm 2 mps 752 mmHg 57%
    11:00 +17°C° 0 mm 2 mps 752 mmHg 51%
    12:00 +19°C° 0 mm 2 mps 752 mmHg 45%
    13:00 +19°C° 0 mm 2 mps 753 mmHg 44%
    14:00 +20°C° 0 mm 2 mps 753 mmHg 43%
    15:00 +20°C° 0 mm 2 mps 753 mmHg 43%
    16:00 +19°C° 0 mm 2 mps 753 mmHg 49%
    17:00 +19°C° 0 mm 1 mps 753 mmHg 56%
    18:00 +18°C° 0 mm 1 mps 754 mmHg 62%
    19:00 +15°C° 0 mm 1 mps 754 mmHg 69%
    20:00 +13°C° 0 mm 1 mps 754 mmHg 76%
    21:00 +10°C° 0 mm 0 mps 754 mmHg 82%
    22:00 +9°C° 0 mm 0 mps 755 mmHg 84%
    23:00 +9°C° 0 mm 0 mps 755 mmHg 87%

    25 August, Saturday

    Time Temperature Precipitation Wind Pressure Humidity
    00:00 +8°C° 0 mm 0 mps 755 mmHg 89%
    01:00 +8°C° 0 mm 0 mps 755 mmHg 89%
    02:00 +8°C° 0 mm 0 mps 756 mmHg 90%
    03:00 +8°C° 0 mm 0 mps 756 mmHg 91%
    04:00 +9°C° 0 mm 0 mps 756 mmHg 87%
    05:00 +10°C° 0 mm 0 mps 756 mmHg 82%
    06:00 +11°C° 0 mm 0 mps 756 mmHg 78%
    07:00 +13°C° 0 mm 0 mps 756 mmHg 69%
    08:00 +16°C° 0 mm 0 mps 756 mmHg 61%
    09:00 +18°C° 0 mm 0 mps 756 mmHg 53%
    10:00 +20°C° 0 mm 0 mps 756 mmHg 49%
    11:00 +21°C° 0 mm 0 mps 756 mmHg 46%
    12:00 +23°C° 0 mm 0 mps 756 mmHg 43%
    13:00 +23°C° 0 mm 0 mps 756 mmHg 43%
    14:00 +23°C° 0 mm 0 mps 756 mmHg 43%
    15:00 +22°C° 0 mm 0 mps 755 mmHg 44%
    16:00 +21°C° 0 mm 0 mps 755 mmHg 50%
    17:00 +20°C° 0 mm 0 mps 755 mmHg 56%
    18:00 +18°C° 0 mm 0 mps 755 mmHg 63%
    19:00 +16°C° 0 mm 0 mps 755 mmHg 68%
    20:00 +15°C° 0 mm 0 mps 755 mmHg 72%
    21:00 +14°C° 0 mm 1 mps 755 mmHg 77%
    22:00 +14°C° 0 mm 1 mps 755 mmHg 78%
    23:00 +13°C° 0 mm 1 mps 755 mmHg 80%
    Show more